Location: �clusier
(49.9361°N, 2.7869°E)
Time: 04:05:08
(UTC+00:00)

Cosmos 1943 Rocket - Pass Details

Date: 28 October 2021
Orbit: 811 x 844 km, 71.0° (Epoch: 07 December)

Event Time Altitude Azimuth Distance (km) Brightness Sun altitude
Rises 19:07:55 0° 333° (NNW) 3,416 5.9 -25.5°
Reaches altitude 10° 19:10:46 10° 346° (NNW) 2,477 4.9 -25.9°
Enters shadow 19:14:12 25° 20° (NNE) 1,664 3.6 -26.5°
